Location: Windsor
(43.2292°N, 89.3015°W)
Time: 00:56:20
(UTC+00:00)

BEESAT - Visible Passes

Search period start: 30 June 2022 00:00
Search period end: 10 July 2022 00:00
Orbit: 698 x 708 km, 98.6° (Epoch: 29 June)

Date Brightness Start Highest point End Pass type
(mag) Time Alt. Az. Time Alt. Az. Time Alt. Az.
30 Jun ? 03:04:30 10° N 03:08:58 40° WNW 03:13:25 10° SW visible
01 Jul ? 02:09:34 10° NNE 02:14:18 59° ESE 02:19:00 10° S visible
01 Jul ? 03:48:29 10° NNW 03:51:33 17° WNW 03:54:37 10° WSW visible
02 Jul ? 02:52:35 10° N 02:57:14 53° WNW 03:01:51 10° SSW visible
03 Jul ? 03:36:16 10° NNW 03:39:53 22° WNW 03:43:30 10° WSW visible
04 Jul ? 02:40:42 10° N 02:45:28 70° WNW 02:50:12 10° SSW visible
05 Jul ? 03:24:09 10° N 03:28:11 28° WNW 03:32:13 10° WSW visible
06 Jul ? 02:28:52 10° NNE 02:33:40 89° E 02:38:27 10° SSW visible
06 Jul ? 04:08:56 10° NW 04:10:39 12° WNW 04:12:22 10° W visible
07 Jul ? 03:12:08 10° N 03:16:28 35° WNW 03:20:48 10° SW visible
08 Jul ? 02:17:04 10° NNE 02:21:51 69° ESE 02:26:36 10° S visible
08 Jul ? 03:56:17 10° NNW 03:59:00 15° WNW 04:01:43 10° W visible
09 Jul ? 03:00:10 10° N 03:04:44 46° WNW 03:09:17 10° SW visible
